Погода в Бектышеве

Россия / Ярославская область     56°34′13″N   39°13′57″E
темп.,
°C
ветер,
м/с
пор.,
м/с
влажн.,
%
обл.,
%
осадки,
мм/ч
давл.,
гПа
погр.,
м
29 июля, чт
чт2900:00+16ююв41290100 0.1 1010443
03:00+16ююв41095100 0.3 1008467
06:00+16юв2598100 0.4 1007331
09:00+17юз1297100 0.7 1006279
12:00+20зсз248286 0.1 1006688
15:00+24зсз4560100 0.5 10051383
18:00+23з365956 0.1 10051053
21:00+20юз367587 0.1 1005102
30 июля, пт
пт3000:00+17з3586100 0.0 100573
03:00+17зюз3592100 0.4 1005109
06:00+17з3788100 0.0 1005191
09:00+20зюз4678100 0.1 1005350
12:00+20ююз457772 0.1 1005265
15:00+24юз556377 0.7 10041311
18:00+23зюз46677 1.8 1004755
21:00+18зюз349183 2.2 100454
31 июля, сб
сб3100:00+16зюз3390100 0.0 100441
03:00+17зюз3888100 0.0 1004184
06:00+17зюз4108179 0.0 1004289
09:00+22зюз69530 0.0 10041042
12:00+25зюз793725 0.0 10042513
15:00+25зюз7103476 0.0 10042479
18:00+23з51046100 0.0 10051086
21:00+21юз3853100 0.0 1006228
1 августа, вс
вс100:00+16зюз49713 0.0 1007149
03:00+15юз3678100 0.0 100882
06:00+16юз357417 0.0 1009115
09:00+22юз4754100 0.0 1009425
12:00+24ююз5749100 0.0 1008950
15:00+24ююз3768100 0.9 1007737
18:00+20зюз41588100 2.5 1006727
21:00+18з3697100 2.5 1008172
2 августа, пн
пн200:00+15зсз119794 0.0 100911
03:00+15юз229654 0.0 101020
06:00+16ю23945 0.0 101079
09:00+22ю34685 0.0 1009445
12:00+27ююз45419 0.0 10071738
15:00+29ю4636100 0.0 10062131
18:00+26вюв3658100 0.1 1002163
21:00+18ю349268 1.3 100272